STARLINK-2208 (47422 NORAD) Tracking and Keplerian Element Data

This shows tracking and keplerian element data for the satellite.

Feedback or suggestion? Click here.




ElementValue
Catalog47422
NameSTARLINK-2208
Epoch Orbit1167
Epoch Day99.73232517
Epoch Year2021
RAAN162.3766
Inclination97.4999
Eccentricity0.001064
Argument of Perigee22.507
Mean Anonmoly337.6627
Mean Motion15.14318835
Decay Rate-6.4E-06
L11 47422U 21006K 21099.73232517 -.00000640 00000-0 -31321-4 0 9995
L22 47422 97.4999 162.3766 0010640 22.5070 337.6627 15.14318835 11674

Live tracking and technical data element details for STARLINK-2208 (NORAD 47422). STARLINK-2208 can be tracked NOW for your location showing map with azimuth and elevation plus other details from your city location.

Track the satellite on the map from your city or location and see movement details for azimuth, elevation, latitude, longitude, range, height, and movement on the map or in text.







IsCatalogInMostPopularTable: catalog: 47422, numindb: 18
Update: records affected: 1



GetName: 47422 STARLINK-2208

Hit Count: updated at: Sat, 10 Apr 2021 18:31:10 GMT